GFSWCAN_con_mlcape_105.txt.gz
CAPE
1 0 0 0 2 4 2 1 1 1 1 0 1 1 0 0 0 0 0 0 0 0 0 0 0 0 0 0 0 0 0 0 0 0 0 0 0 0 0 0 0 0 0 0 0 0 0 0 0 0 0 0 56 675
2 1 1 1 2 4 2 0 0 2 1 1 0 1 0 0 0 0 0 0 0 0 0 0 0 0 0 0 0 0 0 0 0 0 0 0 0 0 0 0 0 0 0 0 0 0 0 0 0 0 0 0 21 420
0 1 2 2 3 2 1 1 1 2 1 1 0 1 0 0 0 0 0 0 0 0 0 0 0 0 0 0 0 0 0 0 0 0 0 0 0 0 0 0 0 0 0 0 0 0 0 0 0 0 0 0 1 84
1 2 1 1 0 0 1 1 2 2 1 1 0 1 0 0 0 0 0 0 0 0 0 0 0 0 0 0 0 0 0 0 0 0 0 0 0 0 0 0 0 0 0 0 0 0 0 0 0 0 0 0 7 0
2 1 0 0 0 1 1 2 1 2 0 0 0 0 0 0 0 0 0 0 0 0 0 0 0 0 0 0 0 0 0 0 0 0 0 0 0 0 0 0 0 0 0 0 0 0 0 0 0 0 0 0 0 5
1 1 1 0 1 2 2 3 3 3 0 0 0 0 0 0 0 0 0 0 0 0 0 0 0 0 0 0 0 0 0 0 0 0 0 0 0 0 0 0 0 0 0 0 0 0 0 0 0 0 0 0 0 11
0 1 1 0 2 3 2 3 4 0 0 0 0 0 0 0 0 0 0 0 0 0 0 0 0 0 0 0 0 0 0 0 0 0 0 0 0 0 0 0 0 0 0 0 0 0 0 0 0 0 0 0 0 0
0 1 0 0 0 0 0 0 0 1 0 0 0 0 0 0 0 0 0 0 0 0 0 0 0 0 0 0 0 0 0 0 0 0 0 0 0 0 0 0 0 0 0 0 0 0 0 0 0 0 0 0 0 0
0 0 1 0 0 1 1 1 0 0 0 0 0 0 0 0 0 0 0 0 0 0 5 0 0 0 0 0 0 0 0 0 0 0 0 0 0 0 0 0 0 0 0 0 0 0 0 0 0 0 0 0 0 1
0 0 1 1 1 1 0 0 0 0 0 0 0 0 0 0 0 0 0 0 0 0 0 17 0 0 0 0 0 0 0 0 0 0 0 0 0 0 0 0 0 0 0 0 0 0 0 0 0 0 0 0 0 0
0 0 0 0 0 0 0 0 0 0 0 0 6 1 0 0 0 1 0 0 0 0 0 0 0 0 0 0 4 0 0 0 0 0 0 0 0 0 0 0 0 0 0 0 0 0 0 0 0 0 0 0 0 0
0 0 0 0 0 0 0 0 0 0 0 1 2 0 0 11 13 1 0 0 0 0 0 0 0 0 0 0 1 0 0 0 0 0 0 0 0 0 0 0 0 0 0 0 0 0 0 0 0 0 0 0 0 0
0 0 0 0 0 0 0 0 0 0 0 0 36 33 33 5 1 0 0 0 0 0 0 0 0 0 0 0 0 0 0 0 0 0 0 0 0 0 0 0 0 0 0 0 0 0 0 0 0 0 0 0 2 4
0 0 0 0 0 0 0 0 0 0 0 10 12 4 0 0 0 0 0 0 0 0 0 0 0 0 0 0 0 0 0 0 0 0 0 0 0 0 0 0 0 0 0 0 0 0 0 0 1 1 0 0 8 17
0 0 0 0 0 0 0 0 0 0 0 0 25 4 0 0 0 0 0 0 0 0 0 0 0 0 0 0 0 0 0 0 0 0 0 0 0 0 0 0 0 0 0 0 0 0 0 13 21 21 27 27 26 19
0 0 0 0 0 0 0 0 0 0 0 0 0 0 0 0 0 0 0 0 0 0 0 0 0 0 0 0 0 0 0 0 0 0 0 0 0 0 0 0 0 0 0 0 0 0 11 19 30 34 18 20 23 24
0 3 0 0 0 0 0 0 0 0 0 0 0 0 0 0 0 0 0 0 0 0 0 0 0 0 0 0 0 0 0 0 0 0 0 0 0 0 0 0 0 0 0 0 0 2 7 16 18 16 19 15 1 0
0 0 0 0 0 0 0 0 0 0 0 0 0 0 0 0 0 0 0 0 0 0 0 0 0 0 0 0 0 0 0 0 0 0 0 0 0 0 0 0 0 0 0 0 0 1 3 3 4 5 8 0 0 0
0 0 0 0 0 0 0 0 0 0 0 0 0 0 0 0 0 0 0 0 0 0 0 0 0 0 0 0 0 0 0 0 0 0 0 0 0 0 0 0 0 0 0 0 0 0 0 0 2 0 0 0 0 0
0 0 0 0 0 0 0 0 0 0 0 0 0 0 0 0 0 0 0 0 0 6 9 0 0 4 0 0 0 0 0 0 0 0 0 0 0 0 0 0 0 0 0 0 0 0 0 0 0 0 0 0 0 0
0 0 0 0 0 0 0 0 0 2 0 0 0 0 0 0 0 8 33 0 0 0 0 0 9 22 16 1 0 0 0 0 0 0 0 0 0 0 0 0 0 0 0 0 0 0 0 0 0 0 0 0 0 0
0 0 0 0 0 0 0 0 0 0 0 0 0 0 0 0 0 0 0 0 0 0 0 5 15 24 15 4 0 0 0 0 0 0 0 0 0 0 0 0 0 0 0 0 0 0 0 0 0 0 0 0 0 0
0 0 0 0 0 1 0 0 35 39 0 0 0 0 0 0 0 0 0 0 0 0 0 0 8 6 13 7 0 0 0 0 0 0 0 0 0 0 0 0 0 0 0 0 0 0 0 0 0 0 0 0 0 0
0 0 0 0 0 0 0 9 15 29 32 31 6 1 0 7 1 49 23 0 0 0 0 0 0 6 1 0 0 0 0 0 0 0 0 0 0 0 0 0 0 0 0 0 0 0 0 0 0 0 0 0 0 0
0 0 0 0 0 3 4 7 31 27 24 17 10 3 73 0 0 0 4 0 0 0 0 0 0 0 10 0 0 0 0 0 0 0 0 0 0 0 0 0 0 0 0 0 0 0 0 0 0 0 0 0 0 0
0 0 0 0 0 0 10 20 4 9 7 1 26 65 17 11 5 4 0 0 0 1 0 0 3 1 0 3 7 0 0 0 0 0 0 0 0 0 0 0 0 1 0 0 8 5 0 0 0 0 0 0 0 0
0 0 0 0 0 0 0 0 1 22 15 14 19 21 11 2 2 20 5 4 17 7 0 0 0 8 21 7 0 4 0 0 0 0 0 0 0 0 0 10 18 5 0 0 1 1 0 0 0 0 0 0 0 1
0 0 0 0 0 0 0 0 11 6 3 6 23 3 0 4 14 34 41 31 3 0 0 0 0 0 0 0 0 0 0 0 0 0 0 0 0 0 0 0 0 0 0 0 0 0 0 0 0 0 0 0 2 8
0 0 0 0 0 0 0 2 31 10 1 55 6 2 19 25 102 91 12 0 0 0 0 0 0 0 0 0 0 0 0 0 0 0 0 0 0 0 0 0 0 0 0 0 0 0 0 0 0 0 0 0 6 7
0 0 0 0 0 0 0 20 49 0 4 11 12 60 82 27 42 0 0 0 0 0 0 0 0 0 0 0 3 0 0 0 0 0 0 0 0 0 0 0 0 0 0 0 0 0 0 0 0 0 0 0 0 0
0 0 0 0 0 0 0 0 0 17 51 75 81 110 116 76 9 0 0 0 0 0 0 0 0 0 0 0 0 7 12 0 0 0 0 0 0 0 0 0 0 0 0 0 0 0 0 0 0 0 0 0 0 0
0 0 0 0 0 0 0 0 0 2 38 51 77 72 58 24 8 0 0 0 0 0 0 0 0 0 0 0 0 0 0 0 0 0 0 0 0 0 0 0 0 0 0 0 0 0 0 0 0 0 0 0 0 0
0 0 0 0 0 0 0 4 47 56 79 102 93 92 13 0 0 0 0 0 0 0 0 0 0 0 0 0 0 0 0 0 0 0 0 0 0 0 0 0 0 0 0 0 0 0 0 0 0 0 0 0 0 0

GFSWCAN_con_mlcape_108.txt.gz
CAPE
1 1 1 1 1 1 2 3 0 1 0 2 0 0 0 0 0 0 0 0 0 0 0 0 0 0 0 0 0 0 0 0 0 0 0 0 0 155 5 53 36 57 24 4 8 15 20 3 48 171 53 37 55 645
0 1 1 1 1 2 2 2 0 0 0 2 0 0 0 0 0 0 0 0 0 0 0 0 0 0 0 0 0 0 0 0 0 0 1 2 2 1 0 0 0 4 26 146 31 80 67 30 35 97 155 168 103 616
0 1 1 1 2 1 1 1 0 1 0 2 0 0 1 0 0 0 0 0 0 0 0 0 0 0 0 0 0 0 0 0 0 0 10 0 1 0 1 7 0 5 34 157 127 143 87 33 87 48 118 280 430 544
1 0 1 1 0 0 1 1 0 0 2 2 0 0 1 0 0 0 0 0 0 6 3 0 0 0 0 0 0 0 0 0 0 0 0 0 0 0 41 190 23 80 39 39 42 180 110 56 49 61 121 281 376 377
0 0 1 1 1 1 1 2 1 2 1 1 0 0 0 0 0 0 0 0 0 55 13 0 0 0 0 0 0 0 0 0 0 0 0 0 2 3 40 40 0 64 31 6 96 299 222 155 0 0 23 152 324 271
0 0 0 1 0 1 2 3 3 2 2 0 0 0 0 0 0 0 0 0 0 0 9 0 0 0 0 0 0 0 0 0 0 0 9 1 0 6 5 103 122 227 206 81 135 57 78 9 0 0 0 133 281 297
0 0 1 0 1 2 3 3 3 3 0 0 0 0 0 0 0 0 0 0 0 0 45 3 0 0 0 0 0 0 7 0 0 0 10 0 0 0 13 37 0 91 230 148 67 39 76 2 13 0 0 0 18 252
0 0 1 0 0 0 0 0 0 0 1 0 0 0 0 0 0 0 0 0 0 23 150 8 11 0 0 2 19 0 7 1 0 5 0 0 0 0 0 0 0 6 13 0 0 5 20 8 4 5 0 0 84 211
0 0 0 1 1 1 1 1 1 0 0 0 0 0 0 0 5 0 0 0 0 0 11 6 3 9 0 19 22 0 2 25 1 0 0 0 0 0 0 0 0 0 0 0 0 0 0 0 0 1 6 0 2 150
0 0 0 0 0 0 0 0 0 0 0 0 0 0 8 30 0 0 0 0 0 0 5 27 9 12 0 0 20 23 0 7 1 0 0 0 0 0 0 0 0 0 0 0 0 0 0 0 0 0 0 0 16 39
0 0 0 0 0 0 0 0 0 0 0 0 13 30 10 0 15 11 0 0 0 0 0 0 1 14 0 16 30 13 20 0 0 2 0 0 0 0 0 0 0 0 0 0 0 0 0 0 0 0 0 0 0 9
0 0 0 0 0 0 0 0 0 0 0 3 11 0 22 52 46 21 0 0 0 0 0 0 0 21 0 7 31 3 14 0 0 0 0 0 0 0 0 0 0 0 0 0 0 0 0 0 0 0 3 1 0 0
0 0 0 0 0 0 0 0 0 0 0 0 19 5 1 0 17 0 0 0 0 0 0 0 0 0 0 11 20 0 0 0 0 0 0 0 0 0 0 0 0 0 0 0 0 0 0 0 0 3 12 3 0 6
0 0 0 0 0 0 0 0 0 0 0 14 17 0 6 14 0 0 0 0 0 0 0 0 0 2 6 3 6 0 0 0 0 0 0 0 0 0 0 0 0 0 0 0 0 0 0 0 0 0 4 9 26 28
0 0 0 0 0 0 0 0 0 0 0 36 61 43 12 16 20 14 0 10 11 0 0 0 4 4 1 0 0 0 0 0 0 0 0 0 0 0 0 0 0 0 0 0 0 0 0 12 23 26 28 25 33 40
0 0 0 0 0 0 0 0 0 0 0 8 39 78 94 64 61 71 22 73 22 0 0 7 8 3 2 7 2 0 0 0 0 0 0 6 4 0 0 1 0 0 0 0 0 0 5 21 25 29 58 57 51 46
0 1 0 0 0 0 0 1 0 2 0 0 0 0 39 72 66 106 137 125 47 0 0 11 7 11 11 3 3 0 0 0 4 7 0 0 0 0 2 1 0 0 0 0 0 0 7 25 45 57 52 47 45 23
0 1 0 0 0 0 15 0 12 2 0 0 0 0 0 0 3 1 0 7 13 23 24 21 26 0 0 0 2 12 11 5 2 1 0 0 8 12 12 4 0 0 0 0 0 11 26 37 53 52 45 47 0 0
0 0 0 0 0 0 11 11 3 27 12 0 0 0 0 0 0 0 0 2 21 38 28 8 8 3 2 12 10 16 22 11 2 9 0 0 0 0 0 20 20 6 0 5 13 27 36 30 36 19 11 0 3 22
0 0 0 0 0 9 30 22 18 0 2 16 1 0 0 0 0 0 0 0 14 32 18 4 0 9 34 35 35 36 38 19 0 0 0 0 0 0 2 1 2 0 0 0 1 6 11 2 0 0 1 6 25 34
0 0 0 0 4 21 54 26 69 74 71 25 46 48 3 0 0 9 94 82 34 13 18 53 74 67 75 125 79 16 4 1 0 0 0 0 0 0 0 0 0 0 0 0 0 0 0 0 0 1 1 4 12 10
2 0 12 0 83 94 35 32 34 73 74 71 61 57 39 0 2 92 259 146 130 92 72 60 55 92 87 394 444 153 16 2 0 8 0 0 17 0 0 0 0 0 0 0 0 0 0 0 3 2 1 7 0 0
0 0 28 55 57 42 3 61 70 20 6 7 17 5 0 0 0 12 8 0 12 8 92 205 336 503 364 429 462 277 171 32 32 25 1 0 36 32 0 0 0 0 0 0 0 0 4 5 0 5 6 0 0 0
0 14 39 27 0 0 38 75 88 110 95 46 29 17 9 61 202 143 0 0 16 356 310 496 400 298 390 364 327 382 108 0 0 2 10 0 1 0 3 1 0 0 0 6 6 2 1 0 0 0 0 0 0 0
0 0 1 0 11 37 29 32 49 81 71 58 63 47 125 166 107 59 72 102 222 207 257 306 324 244 230 243 92 0 0 0 0 5 16 0 0 4 2 6 9 2 4 14 16 10 11 12 0 0 0 0 0 0
0 0 0 0 8 4 14 44 38 36 26 42 57 134 191 166 106 93 100 85 148 242 114 134 213 167 179 291 36 1 0 0 0 0 0 0 0 1 1 10 12 7 3 16 41 35 34 36 14 0 0 0 0 0
0 1 1 0 20 38 42 43 60 23 10 22 109 96 71 88 66 64 140 240 229 291 152 87 139 229 271 126 33 37 49 0 0 0 0 0 0 0 0 3 12 20 35 32 43 66 79 54 17 2 0 0 0 0
7 2 0 2 0 13 24 34 35 21 32 33 64 60 61 42 11 19 140 286 98 5 0 0 0 0 0 0 0 0 0 0 0 0 0 0 0 0 0 3 9 0 8 0 3 33 36 12 9 1 0 9 14 17
4 4 0 1 6 17 13 30 22 60 80 31 12 16 6 131 143 315 162 0 0 0 0 0 0 0 0 0 0 0 0 0 12 41 67 29 16 1 0 0 0 0 0 0 0 0 9 5 0 1 8 18 29 39
0 0 4 2 0 0 0 22 42 55 109 161 125 93 135 245 250 97 0 0 0 0 0 0 0 0 2 10 9 11 10 18 29 2 0 0 0 0 0 0 0 0 0 0 0 0 0 0 0 1 9 27 37 55
0 2 0 0 0 0 0 31 54 86 177 235 256 113 251 266 68 15 0 0 0 0 0 0 0 0 0 0 26 63 27 14 10 8 0 0 0 0 0 0 0 0 0 0 0 0 0 0 0 0 0 17 38 9
0 1 4 0 0 0 0 0 0 3 91 154 215 288 245 260 139 24 10 16 0 0 0 0 0 0 0 0 0 0 0 0 0 3 5 0 0 0 0 0 0 0 0 0 0 0 0 0 0 0 0 5 0 0
0 0 0 0 0 0 0 0 0 24 40 39 347 288 117 89 61 9 0 0 1 0 0 0 0 0 0 0 0 0 0 0 0 0 0 0 0 0 0 0 0 0 0 0 0 0 0 0 0 0 0 0 0 1

GFSWCAN_con_mlcape_111.txt.gz
CAPE
0 0 0 2 1 1 1 1 2 4 0 0 1 1 1 0 0 0 0 0 35 11 33 0 0 0 0 0 7 73 0 17 0 0 1 47 1 79 76 35 207 224 228 101 57 0 33 36 107 145 214 209 127 486
0 0 1 1 2 1 0 0 1 0 1 0 1 2 1 1 0 0 0 0 0 136 38 0 0 0 0 0 0 0 4 87 15 45 60 92 25 2 0 19 150 0 14 266 151 223 147 61 112 85 199 344 442 362
0 0 0 2 2 1 0 0 1 0 0 1 1 2 1 1 0 0 0 0 0 17 0 0 0 0 0 0 0 0 55 22 0 11 76 145 128 93 72 56 2 24 94 5 263 197 166 153 98 126 132 289 536 589
0 0 0 0 1 1 2 2 1 1 0 0 1 2 0 1 0 0 0 0 12 122 30 17 1 0 0 0 0 0 6 15 9 0 0 6 93 186 20 290 201 264 329 8 103 408 246 168 153 96 186 300 493 692
0 0 0 0 1 0 1 1 2 2 2 0 1 1 1 0 0 0 0 0 1 197 70 44 0 0 0 0 0 0 3 8 31 38 4 18 130 78 0 20 80 160 46 140 216 592 466 474 162 63 88 217 397 516
0 0 0 0 0 0 1 3 3 3 1 0 0 0 0 0 0 0 0 0 0 28 160 12 6 0 0 0 0 25 18 0 0 15 118 90 160 0 31 182 343 281 330 197 368 401 123 354 95 82 51 204 299 377
0 0 0 0 0 0 0 0 2 2 3 0 0 0 0 0 0 0 3 0 0 19 98 67 18 0 12 9 31 73 71 112 27 59 7 14 46 0 17 196 146 140 159 275 161 223 77 51 138 92 77 116 135 278
0 0 0 1 1 1 1 0 0 0 0 0 0 0 0 0 0 0 0 0 0 22 28 42 39 28 3 2 84 63 89 61 94 75 9 0 27 1 35 60 0 23 49 57 18 36 35 310 134 75 56 58 169 222
0 0 0 0 0 0 0 0 0 0 0 0 0 0 0 0 0 30 0 0 2 70 10 0 40 40 5 16 138 115 8 24 147 0 6 0 72 0 0 0 0 0 0 0 0 0 0 0 0 1 11 34 66 169
0 0 0 0 0 0 0 0 0 0 0 0 0 0 0 15 0 0 0 0 0 0 123 143 14 165 0 33 42 68 23 21 13 6 0 0 0 0 0 0 0 0 0 0 0 0 0 0 0 0 0 0 62 122
0 0 0 0 0 0 0 0 0 0 0 0 4 31 46 0 0 6 1 0 0 0 0 0 34 73 19 59 42 17 11 19 2 8 0 0 0 0 0 0 0 0 0 0 0 0 0 0 0 0 0 0 0 13
0 0 0 0 0 0 0 0 0 0 0 1 9 67 69 63 66 32 25 1 0 0 0 0 3 114 23 63 55 26 7 9 0 1 0 0 0 0 0 0 0 0 0 0 0 0 0 0 0 0 0 2 2 2
0 0 0 0 0 0 0 0 0 0 0 0 10 26 27 28 14 7 14 9 0 0 0 0 2 66 29 2 23 15 2 0 0 0 0 0 0 0 0 0 0 0 0 0 0 0 0 0 0 0 16 18 24 42
0 0 0 0 0 0 0 0 0 0 4 12 1 0 8 1 2 3 0 2 2 2 0 0 22 18 11 14 28 5 3 0 0 0 0 0 0 0 0 0 0 0 0 0 0 0 0 0 0 6 22 13 19 15
0 0 0 0 0 0 0 0 0 0 0 12 10 4 1 17 6 4 0 45 39 43 0 5 13 52 34 20 7 5 3 0 0 0 0 6 0 0 5 0 0 0 0 0 0 0 0 5 7 11 17 25 28 19
0 0 0 0 0 0 0 0 0 0 0 3 23 15 14 13 16 31 37 79 50 47 23 57 49 40 25 12 4 8 1 0 5 0 3 134 89 37 90 13 0 1 0 0 2 1 3 11 17 12 16 20 21 17
0 13 0 0 0 0 0 0 2 0 0 8 9 6 2 27 85 50 32 129 87 66 39 64 31 36 28 20 23 20 13 10 30 28 52 131 298 395 161 18 0 0 0 0 4 13 8 18 22 10 13 14 26 14
0 1 0 0 0 0 18 2 38 3 2 0 8 12 26 52 102 133 187 190 70 40 78 54 68 51 38 24 35 20 26 31 38 39 32 340 306 323 68 19 27 1 0 0 10 17 16 25 32 24 35 34 29 26
7 0 0 0 0 2 30 24 9 20 4 5 19 12 1 5 39 43 84 139 180 200 118 96 56 56 52 44 52 41 23 50 49 70 222 290 344 136 1 6 17 7 0 0 13 25 40 43 39 20 21 34 24 13
0 0 0 0 0 6 30 36 11 5 9 0 3 0 2 0 5 70 66 90 118 267 155 68 57 73 60 47 71 45 56 131 86 56 43 38 46 1 0 2 9 7 5 10 21 13 47 59 49 54 32 15 7 28
0 3 0 0 0 1 43 41 59 41 32 24 26 0 0 0 0 54 66 32 64 158 160 137 122 113 148 247 369 359 147 179 40 38 56 66 0 0 11 11 1 8 11 9 10 14 2 42 18 6 3 0 6 19
17 0 29 12 53 37 14 17 29 66 89 65 88 63 51 16 5 19 74 240 198 187 189 199 164 219 212 213 207 607 569 593 413 161 29 3 0 0 13 22 16 11 5 1 0 2 0 1 3 10 28 31 1 23
0 0 56 72 42 31 1 32 35 20 35 45 43 48 30 25 46 179 155 125 116 82 70 62 287 542 687 500 365 549 713 807 696 448 368 182 58 29 47 29 29 4 2 1 1 1 1 0 1 19 34 20 27 6
0 28 42 47 13 0 35 60 43 55 66 40 54 48 56 56 65 16 0 0 0 1 2 308 329 130 94 686 458 202 415 622 417 293 207 58 1 2 13 0 0 0 3 15 11 1 5 13 21 7 7 33 13 0
2 0 8 0 34 17 23 35 57 58 28 64 64 59 103 139 48 7 2 13 13 165 367 439 472 503 271 342 387 442 525 219 70 40 10 0 4 13 1 7 0 5 20 15 16 11 21 30 21 31 22 20 6 1
0 7 0 17 33 15 28 44 51 69 75 101 90 134 210 123 116 112 217 371 409 461 417 347 282 342 400 493 581 138 24 26 29 9 15 5 29 21 37 39 30 25 9 12 3 11 29 30 31 26 25 8 0 1
0 19 18 0 36 23 36 58 82 54 30 30 78 47 56 76 104 170 359 361 214 465 319 298 426 469 558 509 439 344 111 0 0 0 0 0 16 20 14 3 4 0 0 7 20 22 15 37 44 21 18 4 4 0
10 13 14 10 3 9 27 31 23 12 13 35 40 17 53 80 92 42 151 348 302 183 21 0 0 5 25 70 38 0 0 0 0 0 0 0 0 0 0 3 0 0 8 41 41 50 1 2 0 2 6 2 0 1
12 10 1 0 4 11 12 32 20 22 24 31 47 50 115 266 316 253 295 120 48 55 11 4 0 1 0 0 0 0 0 0 2 2 21 1 2 5 16 4 0 0 5 28 0 0 82 50 7 16 8 0 0 28
10 1 3 1 0 3 18 25 28 0 47 9 21 53 225 389 380 206 67 33 26 21 15 5 0 1 17 16 8 6 17 33 16 27 31 32 20 6 1 2 3 3 0 1 0 0 0 0 0 0 0 0 9 34
1 0 0 3 1 0 11 18 68 98 138 112 186 131 184 260 160 41 2 2 1 2 9 6 2 3 4 42 33 17 5 16 1 0 1 17 17 18 17 9 5 7 1 0 0 0 0 0 2 8 5 16 18 32
3 7 0 0 0 0 0 15 29 62 67 147 137 158 279 318 148 66 32 51 19 0 0 0 1 0 0 0 0 0 0 0 4 11 12 0 11 20 5 9 15 14 1 0 0 0 0 0 4 7 11 14 33 36
12 4 1 12 14 6 0 15 40 39 54 84 105 179 255 173 80 22 0 5 2 8 0 0 0 0 0 0 0 0 0 0 0 0 0 0 0 0 10 30 25 11 3 1 0 0 0 0 0 3 9 14 18 15

GFSWCAN_con_mlcape_114.txt.gz
CAPE
0 0 0 0 1 1 1 1 1 0 3 1 0 0 3 0 1 0 0 0 0 59 52 9 2 22 0 0 0 79 65 1 0 0 18 46 75 25 67 41 127 0 34 274 203 147 38 25 0 6 136 148 163 126
0 0 0 0 0 1 1 1 0 0 0 2 0 0 2 0 0 0 0 0 0 69 58 5 5 0 3 0 0 1 2 214 46 98 161 70 150 27 24 17 224 18 125 213 157 44 132 52 108 163 117 251 244 109
0 0 0 0 0 0 1 1 1 1 0 0 2 0 1 0 1 0 0 0 0 0 99 19 0 0 1 0 0 0 104 44 86 13 128 175 270 223 149 237 83 23 54 10 1 233 161 165 97 99 126 103 111 404
0 0 0 0 0 0 0 0 1 0 1 1 0 0 0 0 0 0 0 0 0 49 32 9 0 0 0 0 0 0 0 68 23 25 0 0 67 234 171 184 425 310 537 109 21 304 445 258 170 49 84 169 185 477
0 0 0 0 0 0 0 0 1 2 3 1 0 0 1 0 0 0 0 0 0 56 212 7 14 10 0 0 0 0 7 12 23 42 36 16 165 366 271 22 25 118 58 49 280 630 640 500 339 83 8 59 110 258
0 0 0 0 0 0 0 0 0 2 2 1 1 0 0 0 0 0 0 0 5 21 180 8 1 0 0 0 0 3 46 17 6 55 51 206 300 235 0 166 360 173 283 364 520 630 352 599 307 105 2 38 110 193
0 0 0 0 0 1 1 1 0 3 1 2 2 0 0 0 0 0 0 0 0 4 184 137 52 2 0 0 0 6 73 111 68 153 75 1 207 0 0 23 301 179 147 168 202 265 249 3 2 88 29 44 10 138
0 0 0 0 0 0 1 1 0 0 0 0 0 0 0 0 0 0 0 0 0 0 37 12 39 60 0 0 7 68 42 159 73 6 145 60 93 157 11 71 152 30 81 72 33 26 0 280 181 144 26 21 59 95
0 0 0 0 0 0 0 0 0 0 0 0 0 0 0 0 0 0 0 0 0 62 6 0 17 83 45 0 42 233 48 27 180 137 17 21 143 0 0 0 0 0 0 1 0 0 0 0 2 0 0 0 4 46
0 0 0 0 0 0 0 0 0 0 0 0 0 0 0 0 0 0 0 0 0 0 97 72 0 47 109 2 121 141 101 26 56 23 3 3 1 0 0 0 0 0 0 0 0 0 0 0 0 0 0 0 0 10
0 0 0 0 0 0 0 0 0 0 0 0 0 16 51 0 16 0 0 0 0 0 0 19 108 134 132 36 52 59 53 12 8 8 0 0 0 2 9 0 0 0 0 0 0 0 0 0 0 0 0 0 0 0
0 0 0 0 0 0 0 0 0 0 0 0 0 0 22 13 37 11 25 2 0 0 0 0 0 58 37 123 165 95 22 8 2 18 2 0 0 0 0 0 0 0 0 0 0 0 0 0 0 0 0 0 0 0
0 0 0 0 0 0 0 0 0 0 0 0 4 4 18 31 35 27 15 9 1 0 0 0 0 182 217 46 62 14 8 11 3 1 0 0 12 0 0 0 0 0 0 0 0 0 0 0 0 0 0 5 6 15
0 0 0 0 0 0 0 0 0 0 21 20 11 2 9 9 9 4 12 14 3 1 16 0 7 111 40 3 27 16 8 15 8 0 0 10 0 0 0 0 0 0 0 0 0 0 0 0 0 0 16 9 12 18
0 0 0 0 0 0 0 0 0 0 13 22 9 2 0 2 22 33 20 12 9 2 16 19 69 51 42 29 25 16 23 1 0 0 4 92 0 0 0 0 0 0 0 0 0 0 0 1 6 5 25 19 23 31
0 0 0 0 0 0 0 0 0 0 16 6 15 10 23 7 11 14 2 0 9 5 21 35 39 60 54 33 16 16 9 9 8 20 183 186 169 63 80 14 0 0 0 0 0 0 0 1 10 8 12 21 28 19
0 0 0 0 0 0 0 5 13 0 5 7 2 11 3 19 3 24 51 32 0 0 40 52 58 39 52 30 9 28 25 23 45 148 434 513 387 379 350 169 25 9 9 1 0 0 1 4 16 16 21 46 27 21
1 0 0 0 0 0 9 0 3 14 13 0 0 5 6 6 0 9 17 32 0 117 103 74 65 46 27 48 52 37 74 171 227 354 705 795 772 784 373 194 14 3 6 4 2 0 8 5 26 21 13 14 9 20
4 0 0 0 0 1 6 3 1 11 6 0 0 0 0 20 81 28 26 0 22 198 163 80 76 104 49 98 145 115 153 98 176 224 675 796 792 568 205 89 15 3 7 8 0 1 11 3 15 14 14 25 4 25
0 0 0 0 0 11 15 7 15 14 12 5 0 1 12 13 40 0 17 16 66 246 116 143 121 127 170 116 118 151 166 173 159 132 329 391 478 528 285 15 2 0 2 0 1 1 11 22 16 19 26 34 37 18
0 0 0 0 0 3 20 10 23 24 18 6 10 11 6 1 7 23 44 97 73 77 78 66 106 19 6 121 25 27 324 11 81 196 179 114 206 238 133 24 12 2 8 3 7 17 1 28 35 35 10 33 23 18
14 2 28 3 15 29 23 17 0 4 58 6 37 13 19 22 16 2 38 61 52 32 44 46 94 211 210 320 204 402 698 634 601 373 5 2 22 89 28 20 22 25 22 24 9 37 15 0 23 43 4 1 0 20
1 15 38 29 24 10 0 8 6 16 19 10 5 9 32 30 51 34 26 41 146 105 74 108 608 762 641 704 587 380 268 325 260 30 0 143 210 41 31 30 0 12 0 1 0 0 0 0 0 1 3 6 10 11
0 39 37 31 18 0 18 35 31 22 27 22 38 31 24 21 23 68 56 87 84 53 63 168 125 81 64 98 0 1 207 523 482 272 359 478 110 2 0 0 0 0 4 17 22 34 5 0 0 0 8 4 7 18
1 0 24 0 46 15 13 12 17 26 12 25 34 41 45 41 47 52 39 9 0 1 54 494 449 287 417 410 378 322 174 141 6 2 151 149 27 9 0 0 1 17 8 0 0 10 4 2 0 3 5 0 8 10
0 1 1 21 21 15 2 15 27 27 28 24 5 57 61 102 46 18 79 266 586 504 528 392 358 348 150 329 354 122 163 163 146 182 61 16 16 50 61 44 24 29 38 42 14 30 5 6 11 17 2 0 0 1
1 7 23 5 22 24 14 42 53 17 0 3 48 36 36 33 50 109 443 315 455 554 403 308 420 331 352 428 464 172 21 0 2 0 0 0 0 0 20 9 35 22 0 14 10 5 5 12 37 8 4 4 0 0
7 38 13 23 19 30 28 36 21 44 59 57 14 11 7 27 2 66 33 0 5 280 165 118 103 124 146 99 20 0 0 0 0 0 0 0 0 4 1 5 0 0 25 0 6 16 3 23 7 4 0 0 0 3
30 27 32 17 12 14 13 11 26 0 0 6 16 0 26 1 33 86 211 217 202 123 22 14 7 1 0 0 0 0 0 0 7 4 26 14 9 7 16 24 21 19 72 71 0 6 5 92 53 2 0 0 0 11
13 22 19 12 4 2 7 22 10 0 0 5 0 6 179 292 221 129 98 29 13 8 6 6 2 26 12 2 14 23 30 37 30 58 70 50 48 37 32 34 23 21 15 20 42 2 0 15 26 24 0 0 0 9
18 13 2 7 8 0 6 16 9 7 16 0 26 56 156 199 112 46 11 4 5 14 11 18 11 18 40 33 31 15 23 23 1 0 0 5 19 12 12 7 17 24 9 0 0 6 6 0 2 23 18 18 12 5
9 15 8 0 0 3 13 20 51 72 0 5 1 143 275 108 106 91 34 45 20 0 0 1 1 0 0 1 0 0 0 0 0 0 0 0 10 17 16 23 26 24 10 5 1 8 11 0 1 13 18 20 39 37
10 10 3 15 19 9 0 20 27 30 56 43 83 21 17 94 101 24 2 14 8 14 1 0 0 0 0 0 0 0 0 0 0 0 0 0 0 0 2 10 22 16 19 8 8 9 1 0 0 9 9 12 21 27

GFSWCAN_con_mlcape_117.txt.gz
CAPE
1 0 0 0 0 0 1 0 0 0 0 1 4 0 0 4 0 0 0 0 0 0 65 111 56 1 1 0 1 38 0 11 0 0 0 68 140 15 159 155 40 0 0 67 40 21 45 52 50 0 81 86 191 305
0 0 0 0 0 0 0 0 1 1 1 1 3 2 0 2 0 3 0 0 0 0 42 60 18 0 0 0 0 0 2 33 119 4 60 164 88 28 0 18 88 121 25 136 85 4 186 211 206 74 32 41 126 632
0 0 0 0 0 0 0 0 0 0 1 1 1 3 2 1 1 2 0 0 0 0 0 2 2 2 0 0 0 0 0 75 83 22 4 65 273 242 206 176 180 204 158 1 122 72 46 136 111 142 94 98 273 566
0 0 0 0 0 0 0 0 0 0 0 1 1 2 1 1 0 2 0 0 0 0 2 0 8 0 0 0 0 0 0 0 21 0 0 0 0 253 228 154 150 353 266 98 10 140 225 222 35 10 64 74 203 601
0 0 0 0 0 0 0 1 0 0 1 1 2 2 1 1 0 0 0 0 0 0 34 107 4 1 0 0 0 0 2 0 9 0 1 0 447 325 222 71 16 166 263 78 344 498 413 275 148 37 6 6 50 518
0 0 0 0 0 0 1 2 1 0 1 2 2 1 1 1 0 0 0 0 0 0 18 24 10 1 0 0 0 0 0 0 0 7 25 319 210 105 55 7 310 158 326 404 612 455 584 430 216 116 0 7 92 676
0 0 0 0 0 0 1 1 1 0 1 3 2 2 1 0 0 0 0 0 0 0 70 83 1 4 11 0 0 0 0 0 39 46 116 34 89 0 0 0 177 227 91 109 128 274 264 138 23 66 7 23 2 501
0 0 0 0 0 0 0 0 0 2 0 0 0 0 0 0 0 0 0 0 0 0 4 47 11 15 3 0 0 0 17 61 8 0 72 52 28 67 2 0 35 46 58 38 13 7 9 111 95 106 24 0 12 403
0 0 0 0 0 0 0 0 0 0 0 0 0 0 0 0 0 0 0 0 0 0 13 3 22 19 8 0 0 39 22 6 106 28 59 9 14 0 0 0 0 0 0 0 0 0 0 0 99 8 0 0 0 252
0 0 0 0 0 0 0 0 0 0 0 0 0 0 0 0 0 0 0 0 0 0 81 36 44 10 23 23 65 97 59 3 26 9 3 0 0 0 0 0 0 0 0 0 0 0 0 0 0 0 0 0 0 8
0 0 0 0 0 0 0 0 0 0 0 0 0 1 37 0 12 4 1 0 0 0 0 5 50 97 0 42 139 117 30 0 0 0 0 0 0 1 5 0 0 0 0 0 0 0 0 0 0 0 0 0 0 0
0 0 0 0 0 0 0 0 0 0 0 0 0 0 11 43 53 8 4 0 0 0 0 0 0 46 13 100 101 57 9 0 0 0 1 0 0 2 0 0 0 0 0 0 0 0 0 0 0 0 0 0 0 0
0 0 0 0 0 0 0 0 0 0 0 0 5 0 3 0 8 19 4 0 0 0 0 0 0 44 10 11 135 68 2 0 0 0 0 0 7 2 0 0 0 0 0 0 0 0 0 0 0 0 0 0 0 0
0 0 0 0 0 0 0 0 0 0 0 6 11 2 5 3 9 4 0 2 0 0 0 11 1 269 264 89 57 7 0 0 0 0 0 1 0 0 0 0 0 0 0 0 0 0 0 0 0 0 6 1 0 0
0 0 0 0 0 0 0 0 0 0 15 4 0 1 0 0 0 0 24 60 44 18 30 53 31 163 41 21 2 6 5 0 0 0 0 3 0 0 0 0 0 0 0 0 0 0 0 0 0 0 13 12 4 0
0 0 0 0 0 1 0 0 0 0 2 0 8 2 0 2 0 1 24 57 51 28 52 42 91 118 63 14 0 5 0 0 0 6 88 40 0 0 0 0 0 0 0 0 0 0 0 0 0 0 0 4 4 2
0 0 0 0 0 0 0 0 0 1 0 0 0 0 0 1 19 28 35 23 57 36 2 61 27 2 60 28 6 0 0 0 192 157 67 4 0 2 23 85 37 4 0 0 0 0 0 0 0 4 11 5 2 0
0 0 0 0 0 1 0 0 4 2 1 0 0 0 0 7 9 10 7 42 35 16 2 28 102 39 28 21 7 1 60 245 478 452 318 309 259 226 151 182 170 50 0 0 0 0 0 0 0 0 9 6 5 0
1 1 0 0 0 0 1 0 0 3 8 0 0 0 0 0 0 35 12 10 7 23 26 56 50 30 9 34 171 79 208 417 511 648 704 666 705 629 443 340 175 10 0 0 0 0 0 0 0 0 2 0 0 0
0 0 0 0 0 0 3 0 7 1 0 7 1 0 0 1 54 102 8 0 0 8 8 6 1 107 185 254 248 146 208 203 364 458 672 727 804 707 307 315 190 45 1 0 0 0 0 0 0 7 0 7 1 4
0 0 0 0 1 0 0 7 5 5 12 19 22 22 0 1 66 49 33 4 0 0 0 16 74 88 127 347 361 277 130 39 25 72 183 315 619 719 563 435 201 31 7 0 0 0 0 5 0 4 20 19 12 10
0 0 0 1 3 14 3 1 0 13 11 1 6 19 4 1 20 19 7 0 3 35 20 94 141 75 167 248 183 50 19 0 0 0 63 161 60 256 452 454 181 63 48 20 4 0 0 15 27 18 21 8 11 2
0 13 13 5 4 1 0 0 4 6 10 30 23 7 21 13 5 32 24 4 10 51 5 0 35 485 508 641 488 355 100 0 0 10 337 298 182 155 77 96 73 19 0 0 0 0 0 11 2 16 17 6 0 0
1 13 11 6 8 0 6 12 1 15 29 2 7 2 14 15 22 33 30 5 3 109 60 95 77 147 299 428 563 716 583 441 288 154 56 51 59 8 0 0 0 0 0 0 0 0 2 10 14 0 9 0 0 0
5 0 3 0 2 20 11 17 10 0 3 17 23 23 27 31 24 34 36 48 37 24 151 549 377 288 309 394 424 338 194 157 34 2 0 9 1 0 0 0 0 0 0 0 0 0 8 12 4 0 0 7 24 1
0 0 0 22 1 9 10 20 10 3 14 35 33 61 63 48 45 59 100 110 61 65 548 609 540 337 192 236 207 126 144 248 149 176 20 0 0 2 3 3 0 4 0 0 0 4 19 25 27 3 1 7 0 3
1 0 3 7 2 35 11 5 2 3 4 18 7 15 0 1 18 111 43 0 1 0 57 262 155 350 219 99 158 37 0 0 4 0 0 0 0 0 0 0 11 36 42 23 2 1 13 10 4 3 4 2 0 0
1 10 21 28 26 22 26 33 32 17 11 52 92 27 10 9 7 84 31 1 27 100 89 263 97 115 183 66 0 0 0 0 0 0 0 0 0 0 4 0 11 25 22 18 11 15 5 5 0 0 2 0 0 0
3 38 11 22 31 22 9 10 46 80 42 29 18 1 0 0 4 111 0 0 16 93 68 17 0 0 0 0 0 0 1 0 0 6 16 14 19 18 22 34 8 8 14 20 29 57 46 41 13 0 0 0 0 0
1 17 44 25 13 7 10 27 25 6 0 0 0 0 0 0 0 4 22 28 9 13 0 0 0 1 1 4 4 10 25 28 42 36 34 28 20 10 16 21 2 4 22 77 44 29 11 5 21 48 23 0 0 0
10 16 8 10 9 9 19 15 30 0 0 2 13 11 7 37 42 46 81 65 52 8 5 18 31 31 24 19 2 5 4 0 0 0 0 0 5 2 0 0 0 0 0 0 0 2 38 77 53 24 2 0 0 0
3 10 9 0 0 23 38 45 19 0 0 0 0 13 83 68 90 84 72 124 9 0 0 1 0 1 0 0 0 0 0 0 0 0 0 0 0 0 0 0 1 0 0 0 0 0 5 1 3 27 49 31 26 7
6 12 20 3 5 0 6 2 11 1 1 0 2 25 26 0 13 49 67 15 2 6 1 0 0 0 0 0 0 0 0 0 0 0 0 0 0 0 0 0 0 0 0 0 0 2 0 0 0 0 8 14 28 29

GFSWCAN_con_mlcape_123.txt.gz
CAPE
1 1 1 0 0 0 0 0 0 0 0 0 4 10 4 3 2 4 0 0 0 0 0 0 0 0 0 0 0 0 0 0 0 0 0 0 0 0 0 0 9 0 0 0 0 0 0 4 0 4 0 56 85 228
2 0 0 0 0 0 0 0 0 0 0 1 1 6 3 2 1 6 0 0 0 0 0 0 0 0 0 0 0 0 0 0 1 0 0 0 0 0 0 0 13 3 3 0 0 0 0 16 0 26 41 148 214 220
2 0 0 0 0 0 0 0 0 0 1 2 1 2 6 2 3 4 0 0 0 0 0 0 0 0 0 0 0 0 4 0 1 0 0 0 3 0 1 10 100 25 0 57 0 0 106 116 37 23 110 77 93 74
2 1 0 0 0 0 0 0 0 0 1 3 2 1 4 3 3 5 1 0 0 0 0 0 0 0 0 0 0 0 2 0 0 0 0 0 0 0 3 17 29 25 2 7 3 17 49 153 52 55 326 184 101 127
1 0 0 0 0 0 0 0 0 1 0 1 2 0 3 1 2 3 0 0 0 0 0 0 0 0 0 0 0 0 0 0 0 0 0 0 0 0 0 0 0 78 50 48 22 35 35 177 70 66 342 189 70 49
1 1 0 0 0 0 0 0 0 0 0 2 0 4 5 2 4 1 0 0 0 0 0 1 0 0 0 0 0 0 0 0 0 0 0 0 0 0 1 3 16 20 4 0 31 8 67 123 10 40 209 451 409 212
1 1 0 0 0 0 0 0 0 0 0 1 0 2 5 2 3 0 0 0 0 0 0 30 9 0 0 0 0 0 0 0 0 0 0 0 0 0 0 0 0 81 189 166 157 52 173 87 69 0 123 520 501 290
4 1 1 0 0 0 0 0 0 0 0 0 1 3 2 2 0 0 0 0 0 0 0 11 1 0 0 0 0 0 0 0 0 0 0 0 0 0 0 0 0 1 70 116 178 89 147 88 52 18 52 399 293 144
7 2 1 0 0 0 0 0 0 0 0 0 0 0 0 0 0 0 0 0 0 0 0 0 0 0 0 0 0 0 0 0 0 0 0 0 0 0 0 0 0 0 0 5 0 0 1 0 0 0 11 228 76 65
4 2 0 0 0 0 0 0 0 0 0 0 0 0 0 0 0 0 0 0 0 0 0 0 0 0 3 0 2 0 0 0 0 0 0 0 0 0 0 0 0 0 0 0 0 0 0 0 0 0 0 0 0 0
2 2 0 0 0 0 0 0 0 0 0 0 0 0 0 0 0 0 1 0 0 0 0 0 0 7 0 3 11 0 11 3 0 0 0 0 0 0 0 0 0 0 0 0 0 0 0 0 0 0 0 0 0 0
1 1 0 0 0 0 0 0 0 0 0 0 0 0 0 20 25 2 0 0 0 0 0 0 0 0 13 49 57 11 22 5 0 0 0 0 0 0 0 0 0 0 0 0 0 0 0 0 0 0 0 0 0 0
0 0 0 0 0 0 0 0 0 0 0 0 3 4 7 1 14 8 0 0 0 0 0 0 0 0 15 52 63 31 29 8 0 0 0 0 0 0 0 0 0 0 0 0 0 0 0 0 0 0 0 0 0 0
1 0 0 0 0 0 0 0 0 0 0 0 5 0 1 0 0 0 0 0 0 0 0 0 0 59 7 17 17 31 9 0 0 0 0 0 0 0 0 0 0 0 0 0 0 0 0 0 0 0 0 0 0 0
0 0 0 0 0 0 0 0 0 0 0 0 1 6 0 0 0 0 0 0 0 24 12 0 0 65 47 52 35 5 0 0 0 0 0 0 0 0 0 0 0 0 0 0 0 0 0 0 0 0 0 0 0 0
0 0 0 0 0 0 0 0 0 0 1 1 2 0 0 0 0 0 0 0 7 41 14 1 0 0 19 22 3 11 2 0 0 0 0 0 0 0 0 0 0 0 0 0 0 0 0 0 0 0 0 0 0 0
0 0 0 0 0 0 0 0 0 0 1 1 0 0 0 0 0 0 0 0 0 20 34 67 42 14 3 6 0 0 0 0 0 0 0 0 0 0 0 0 0 0 0 0 0 0 0 0 0 0 0 0 0 0
0 0 0 0 0 0 0 0 1 1 2 2 0 0 0 0 0 0 0 1 3 15 25 23 34 40 44 33 2 0 0 0 0 0 0 0 0 0 0 0 0 0 0 0 0 0 0 0 0 0 0 0 0 0
1 0 0 0 1 0 0 0 0 0 2 0 0 0 0 0 0 0 4 8 18 17 16 19 23 30 21 2 15 4 0 0 0 0 0 0 0 0 0 0 0 0 0 0 0 0 0 0 0 0 0 0 0 0
0 0 2 1 0 0 9 2 0 0 0 0 0 0 0 0 0 0 3 8 6 16 17 19 21 46 50 38 5 15 58 23 45 28 6 0 0 0 0 0 0 0 0 0 0 0 0 0 0 0 0 0 0 0
0 0 0 0 1 0 0 0 2 0 0 0 0 0 0 0 0 0 1 20 16 15 18 2 0 0 10 1 3 33 22 47 119 44 31 36 26 62 53 115 112 35 13 2 0 0 0 0 0 0 0 0 0 0
0 0 1 1 1 6 3 0 0 1 1 0 0 0 0 0 0 4 1 4 2 7 8 6 1 0 0 0 37 8 2 0 0 16 28 26 6 32 92 15 14 136 134 27 0 0 0 0 0 0 0 0 0 0
0 1 1 1 1 2 0 1 7 10 14 12 0 9 1 1 5 33 28 3 3 2 0 0 0 0 0 0 1 0 0 0 0 0 0 0 0 0 0 0 0 5 2 0 0 0 0 0 0 0 0 0 0 0
0 13 3 6 0 2 7 8 0 1 21 10 4 7 0 4 13 19 9 0 0 1 0 0 1 2 0 0 0 0 5 3 0 0 0 0 0 0 0 0 0 0 0 0 0 0 0 0 0 0 0 1 0 0
5 0 1 2 7 6 7 8 10 8 7 4 0 0 24 9 0 12 30 28 29 24 2 0 0 0 0 3 13 33 35 49 32 62 5 0 0 0 0 0 0 0 0 0 0 0 0 0 0 0 0 0 0 0
2 0 0 5 1 0 5 14 23 12 13 3 0 6 13 17 23 38 25 13 21 12 12 46 22 6 4 3 30 30 30 9 1 21 12 1 0 0 0 0 0 0 0 0 0 0 0 0 0 0 3 3 0 0
1 0 0 0 0 5 19 2 4 8 7 14 5 11 2 10 1 0 12 0 0 0 0 2 67 72 50 14 0 0 50 25 25 10 0 0 0 0 0 0 0 0 0 0 0 0 0 0 0 0 0 0 0 0
0 0 0 7 4 0 0 0 4 0 0 3 15 0 0 2 12 19 0 0 0 6 25 48 32 20 15 1 0 0 0 0 0 0 0 0 0 0 0 0 0 0 10 5 0 0 0 0 3 1 5 8 0 0
0 0 0 1 0 0 2 2 8 3 0 0 1 11 4 0 0 0 0 0 21 13 42 84 38 6 0 0 0 0 0 0 0 0 0 0 0 0 0 0 0 0 9 15 11 10 11 7 7 0 0 0 0 0
0 0 0 9 17 4 7 23 20 0 1 0 0 0 0 0 0 0 16 8 9 40 31 4 0 0 0 0 0 0 0 0 0 0 0 0 0 0 0 0 0 0 0 0 0 0 2 3 0 0 0 0 0 0
0 0 0 2 2 5 22 18 3 4 11 6 0 0 1 6 10 24 16 14 35 25 8 1 0 0 0 0 0 0 0 0 0 0 0 0 0 0 0 0 0 0 0 0 0 0 0 0 0 0 0 0 0 0
0 0 0 0 2 22 5 1 1 1 0 0 0 6 29 25 33 25 14 8 23 25 32 21 12 6 0 0 0 0 0 0 0 0 0 0 0 0 0 0 0 0 0 0 0 0 0 0 0 0 0 1 0 0
2 0 0 3 32 19 20 9 8 8 0 0 22 25 10 8 27 12 0 0 0 0 0 0 2 0 0 0 0 0 0 0 0 0 0 0 0 0 0 0 0 0 0 0 0 0 0 0 1 0 3 11 10 6